Wind_Speed
54 52 50 48 47 46 46 44 41 40 41 43 43 42 42 40 36 35 33 32 31 30 30 30 31 32 33 34 35 34 33 32 32 32 32 32 32 31 30 28 28 31 34 35 34 34 32 28 27 30 31 32 32 32 33 33 33 31 30 29 26 24 21 16 14 13 17 20 16 11 9 6 6 8 8 10 10 10 10 10 10 10 11 11 12
56 56 56 50 45 45 48 50 49 47 44 45 47 47 46 43 40 38 36 35 33 31 30 31 31 31 32 33 33 33 33 33 33 32 33 32 32 31 30 29 29 31 33 34 34 33 30 28 27 29 30 31 30 31 32 34 33 31 30 28 25 23 20 15 13 12 14 17 13 10 8 5 6 8 9 9 9 10 10 11 12 12 12 13 14
57 57 59 58 52 47 44 45 48 51 51 48 48 49 49 47 45 44 41 40 37 34 34 34 34 32 31 30 30 31 32 32 32 32 32 32 33 31 30 29 29 30 32 33 33 32 30 27 27 28 29 29 29 30 32 34 33 31 30 28 24 23 20 14 12 11 12 14 12 8 6 4 6 7 8 8 9 10 11 12 12 13 13 14 15
59 58 59 59 58 55 50 46 43 44 49 52 52 52 51 49 48 47 46 46 44 40 37 37 36 33 31 31 30 30 30 31 31 31 31 31 32 31 30 29 29 30 30 33 33 31 29 27 27 28 28 28 28 28 31 34 33 31 30 27 23 22 19 14 11 10 10 12 10 7 4 3 5 6 7 8 8 10 11 11 12 13 14 15 16
55 58 60 60 59 59 58 56 52 45 43 46 51 54 54 51 49 48 48 48 47 44 40 38 37 36 35 34 33 31 30 30 30 30 30 30 31 31 30 29 29 29 29 33 32 29 27 26 26 27 28 27 27 27 30 33 32 30 30 27 23 21 19 14 11 10 9 10 9 5 2 2 4 6 7 7 8 10 11 12 13 14 15 15 16
51 53 58 62 62 62 61 59 58 54 47 42 42 46 50 51 52 51 50 48 46 45 43 39 38 38 37 35 34 32 30 30 30 31 30 30 29 29 29 29 29 29 30 33 31 27 26 25 26 27 27 27 26 27 29 33 31 30 29 26 22 21 18 14 11 10 9 8 7 4 0 1 3 5 6 7 7 9 11 12 12 14 15 15 15
50 51 54 60 64 65 65 62 58 56 53 46 40 38 38 39 41 43 44 44 43 41 41 39 38 39 39 37 35 33 31 30 30 31 31 29 28 28 28 28 30 31 31 33 31 27 25 25 26 27 27 27 26 26 28 32 31 29 29 26 22 21 17 14 12 9 9 8 6 3 2 2 1 4 5 6 7 9 10 11 11 12 14 14 14
50 52 52 55 60 62 62 61 57 55 55 50 44 40 37 32 28 28 29 31 34 35 35 36 37 38 38 37 35 32 30 30 30 30 30 29 26 27 28 28 30 31 32 33 30 28 25 25 25 26 26 26 26 26 28 31 30 29 28 25 22 20 16 13 12 10 9 8 7 4 3 3 1 3 4 5 6 8 10 10 10 11 13 13 13
50 53 54 54 55 55 55 55 54 54 55 53 49 45 42 37 30 26 24 25 28 29 30 32 34 36 37 37 35 32 30 29 29 29 29 27 25 25 28 29 29 30 32 32 30 27 25 25 25 25 25 26 26 26 28 31 30 29 28 24 21 20 15 12 12 11 9 8 7 5 4 4 2 2 3 5 6 8 9 10 10 10 11 12 12
53 52 54 54 52 50 49 49 49 49 50 50 49 46 45 42 36 31 27 25 27 28 29 29 30 32 35 35 34 32 30 29 29 29 27 26 25 25 27 29 29 29 31 31 29 26 25 24 24 23 23 25 26 26 27 30 30 28 28 24 21 19 14 11 12 12 10 8 7 6 4 5 3 2 2 4 6 7 9 9 9 9 10 11 11
58 56 55 54 53 52 51 50 48 47 46 47 46 45 46 45 42 37 32 29 29 29 28 29 30 30 31 32 32 32 31 30 30 28 26 25 25 25 26 28 28 29 30 29 28 26 24 24 23 22 22 24 26 26 27 30 29 28 27 24 20 18 14 12 12 12 11 9 7 6 5 5 4 2 2 3 5 7 9 9 9 9 9 10 11
62 61 60 59 56 54 54 52 50 48 46 45 44 43 45 46 45 42 40 38 35 32 29 28 29 28 27 27 30 32 31 31 30 27 26 25 25 25 26 28 28 29 28 27 27 24 22 23 23 21 21 23 25 25 26 29 29 28 27 23 19 17 14 12 12 12 11 9 7 5 6 6 4 3 2 2 4 6 8 9 9 9 9 10 10
64 64 64 62 58 54 53 52 50 48 46 44 43 42 41 40 40 40 40 40 39 36 32 31 30 28 26 26 29 32 31 30 29 27 25 25 25 26 26 29 29 29 28 27 28 25 21 22 23 22 21 22 24 25 26 29 29 27 26 23 19 15 13 13 12 11 10 9 7 5 7 6 5 4 2 2 4 6 8 9 9 9 9 9 10
68 67 65 64 61 57 55 54 51 48 47 44 41 40 38 36 35 36 35 35 36 37 36 35 34 31 28 27 29 31 30 29 29 27 25 25 25 25 26 29 30 29 29 29 30 26 21 21 22 22 21 21 22 24 25 27 29 27 25 23 18 14 12 13 12 11 10 9 6 6 7 6 5 4 3 3 5 6 8 8 9 9 9 9 10
73 71 68 65 63 60 59 57 54 52 50 48 43 39 37 36 37 36 33 32 34 35 35 36 36 33 30 29 29 30 30 29 28 26 25 25 24 24 25 28 30 30 29 30 31 27 22 21 21 22 21 21 22 23 24 26 28 28 25 22 18 14 12 12 12 11 9 8 6 7 7 7 6 4 4 5 7 8 8 8 9 9 10 11 11
77 75 73 70 67 65 64 61 58 55 54 52 48 43 39 39 41 37 34 34 35 34 33 36 38 36 32 30 28 28 29 28 26 26 26 25 24 24 25 27 29 30 29 30 30 27 23 23 22 22 22 21 20 21 23 25 27 27 25 22 18 13 11 12 11 10 9 8 6 7 8 7 6 4 5 7 9 9 9 9 9 11 12 13 13
80 79 78 76 73 70 69 67 64 60 58 56 53 48 43 43 41 37 35 38 39 36 34 35 38 38 35 33 30 28 28 27 25 26 26 24 23 24 25 26 29 30 29 29 29 27 25 24 22 22 23 22 21 20 21 23 26 27 24 21 18 13 10 11 11 10 8 8 7 8 8 8 8 6 7 10 11 11 10 10 11 12 14 15 14
82 81 81 80 78 76 74 73 70 67 63 61 58 52 47 44 40 36 35 37 38 38 36 33 35 38 38 36 33 29 28 27 26 27 26 23 23 23 23 25 28 30 29 28 28 27 26 25 23 22 23 23 22 21 20 21 24 26 25 21 17 13 10 10 10 9 8 8 8 9 10 10 10 9 10 11 12 12 10 11 12 15 17 17 16
84 84 84 83 81 80 78 76 75 72 68 65 62 57 51 47 42 38 36 35 35 37 37 34 32 35 38 38 37 33 30 28 28 27 26 25 23 20 20 24 28 30 29 27 26 27 27 26 23 22 22 23 24 23 21 20 22 24 24 22 18 13 10 10 10 9 8 8 9 10 11 12 13 13 13 14 13 12 11 12 15 17 19 19 17
86 86 86 86 84 83 81 79 77 75 71 67 64 59 55 51 47 44 40 37 36 38 38 35 32 32 36 39 40 37 33 31 30 28 27 28 25 21 20 22 27 30 29 25 25 27 27 26 24 22 22 24 24 24 21 20 22 23 23 22 20 14 10 10 11 10 9 9 9 10 12 14 15 15 15 15 13 12 12 14 17 19 20 19 17
90 89 88 87 87 85 82 81 79 76 74 70 66 61 57 54 51 50 46 41 39 40 39 37 33 32 34 37 41 41 37 33 31 29 29 29 28 25 24 25 27 30 28 24 24 27 27 26 24 22 22 25 26 25 21 19 20 23 23 22 20 17 12 11 11 11 10 9 9 9 11 12 14 15 14 14 13 12 13 16 18 19 19 18 16
94 93 91 89 88 86 84 82 81 79 77 74 71 66 62 57 52 50 50 47 43 41 41 39 35 34 34 34 38 41 38 34 32 30 29 29 29 27 25 26 27 29 28 25 22 24 26 26 24 23 25 27 28 26 22 19 18 20 23 22 20 18 14 12 12 13 11 9 9 9 10 11 11 12 12 12 12 13 14 16 18 18 18 17 15
96 96 95 93 90 88 84 82 82 82 80 78 75 71 68 64 57 52 51 52 49 45 45 43 38 36 35 33 36 39 38 37 34 31 30 29 28 27 26 26 26 27 29 28 23 22 24 25 25 26 26 25 25 24 21 20 17 18 21 23 21 18 15 13 14 15 13 10 9 9 9 10 11 11 11 12 12 14 15 16 17 17 17 16 13
100 99 98 96 93 90 87 83 83 84 82 80 78 75 71 67 64 59 55 53 51 49 47 45 41 39 36 32 34 37 37 37 35 32 31 30 28 27 25 25 26 27 29 31 29 25 24 25 27 27 25 24 25 24 21 20 18 17 20 23 22 19 16 14 15 17 16 13 11 10 9 10 10 11 11 12 13 15 16 17 18 18 17 16 12
102 102 102 99 96 94 91 88 85 83 84 82 80 78 73 69 67 64 60 56 51 49 49 47 44 43 37 31 33 35 34 35 35 33 32 31 30 28 26 26 27 27 28 31 33 31 29 29 29 28 26 25 26 24 21 19 19 19 20 22 23 21 17 15 16 18 18 16 14 12 11 11 11 11 12 13 14 16 17 18 19 18 17 15 13
95 98 101 100 98 95 92 90 87 84 82 82 81 78 74 72 70 65 61 59 55 52 52 49 47 46 40 34 34 34 33 33 33 33 32 33 32 29 28 27 27 29 31 31 33 34 33 31 29 29 28 26 26 25 22 20 22 23 22 22 23 22 19 16 17 19 20 19 17 15 14 13 13 13 13 14 15 16 18 19 20 20 19 17 15
85 88 92 93 92 90 89 89 89 85 82 82 84 81 76 75 73 69 64 63 61 60 57 51 48 48 43 37 35 36 35 33 33 34 34 34 35 32 30 30 30 32 33 32 32 33 33 30 28 29 30 27 25 25 24 23 25 25 23 22 22 23 21 18 17 19 22 22 21 18 17 16 15 16 16 16 16 17 18 20 21 21 20 19 18
75 76 78 82 83 82 83 86 88 85 82 84 86 85 82 78 74 71 67 65 65 65 63 56 51 50 47 40 39 39 38 35 35 35 34 35 37 36 35 35 34 34 35 34 33 31 30 30 29 30 32 31 27 24 23 24 26 25 23 23 23 23 23 20 18 20 22 24 24 22 20 19 18 18 18 18 18 18 19 19 20 21 21 21 21
67 64 63 68 75 76 75 80 85 85 83 84 85 85 86 84 78 73 70 68 68 67 66 62 57 54 49 44 42 42 40 38 37 38 37 36 38 40 40 39 37 35 35 34 31 29 30 32 33 33 34 34 31 28 25 25 26 25 23 25 25 24 24 23 20 20 23 26 27 26 24 22 21 20 20 20 19 18 18 18 18 19 19 20 21
60 59 57 57 62 68 70 74 82 85 84 85 84 84 86 87 82 77 74 72 71 69 66 64 61 56 51 47 47 47 45 41 40 41 40 39 39 42 42 41 40 39 36 33 31 32 33 35 37 35 33 35 36 32 26 23 23 23 23 26 28 27 26 26 23 21 23 27 29 29 28 26 24 23 23 22 20 19 18 18 18 18 18 18 19
53 56 57 54 52 59 65 68 74 79 82 86 86 83 83 85 84 83 80 76 75 73 68 62 59 57 53 51 50 51 49 45 43 43 43 42 42 43 43 43 42 40 37 34 34 37 37 37 39 36 33 35 37 36 31 24 21 24 27 31 33 31 29 28 27 24 23 27 30 31 31 30 28 26 25 24 22 21 20 18 18 19 19 19 19
47 50 53 53 51 53 59 62 66 71 76 82 86 84 82 82 82 84 85 81 79 78 73 65 60 59 58 55 53 53 52 48 45 46 46 45 44 44 45 45 43 41 39 37 37 40 39 39 40 38 35 34 37 38 36 30 25 25 29 33 36 36 34 31 31 29 25 26 30 33 33 33 31 29 27 26 24 22 21 19 18 18 19 19 20
40 44 47 50 52 53 56 61 64 67 70 76 83 84 84 82 81 82 83 82 82 82 80 74 68 65 62 57 55 55 54 50 47 48 49 48 46 46 45 44 44 44 42 39 39 41 42 41 40 40 39 37 37 38 37 32 28 26 29 33 36 38 37 34 33 33 30 27 29 32 34 35 34 33 31 29 27 25 22 20 19 19 19 19 20
33 39 43 48 52 54 58 63 65 65 68 73 79 83 84 83 82 83 82 81 82 83 82 80 76 72 68 62 59 58 56 54 52 53 52 50 49 49 48 46 47 48 45 42 40 40 43 44 45 47 46 40 38 38 38 36 32 29 28 29 31 34 37 37 36 35 34 31 30 31 34 36 37 37 35 32 30 28 25 23 21 20 19 20 21
29 35 40 45 50 53 57 61 62 62 65 69 75 80 82 81 81 83 84 82 81 83 83 81 79 77 73 68 64 62 61 59 58 58 56 53 52 52 52 49 50 51 47 43 40 39 42 46 48 50 49 44 40 38 38 39 37 33 31 29 29 31 35 39 39 38 37 35 33 32 32 35 38 40 39 36 34 32 29 26 24 22 21 21 22
27 31 37 42 47 51 55 58 59 59 61 65 71 76 78 80 80 81 84 84 82 82 83 82 80 79 77 73 68 66 65 63 62 61 59 57 56 55 55 53 53 53 48 44 43 41 43 49 51 50 48 45 42 38 38 40 39 38 37 34 33 32 33 37 40 40 40 38 37 37 36 36 38 40 40 39 37 35 32 29 27 25 24 24 24
27 29 33 39 44 48 52 56 58 59 59 61 66 74 76 77 79 80 82 85 84 82 84 84 82 80 79 77 73 70 68 66 65 64 62 61 59 58 57 56 58 56 49 47 48 45 45 49 53 52 49 47 46 42 41 41 42 43 43 40 38 36 34 36 38 39 39 38 38 40 41 40 39 39 40 39 38 37 35 32 30 29 28 27 25
28 29 32 36 41 46 50 53 57 61 63 61 61 69 75 75 76 79 81 85 85 84 84 84 83 82 81 79 77 74 71 69 67 66 65 65 64 62 60 60 61 60 54 50 51 50 48 50 54 56 54 53 52 49 46 45 45 47 46 44 44 42 40 41 41 39 39 39 39 40 41 43 42 41 40 40 38 38 37 35 33 32 32 31 28
29 30 32 34 38 43 47 51 54 58 63 64 61 63 70 74 75 77 80 84 86 85 86 85 84 84 83 81 80 78 75 73 71 68 67 68 68 66 64 63 64 64 59 53 52 53 52 53 56 57 57 57 57 56 53 50 50 50 50 49 47 46 46 46 44 42 41 41 42 43 43 45 46 45 43 41 39 39 38 37 36 35 35 35 32
29 30 31 33 35 39 43 48 51 54 58 62 62 62 66 71 74 76 80 84 86 86 87 87 86 86 85 82 82 82 80 78 76 72 69 69 71 70 68 67 67 67 65 59 55 56 56 57 59 59 57 57 58 60 58 55 53 53 53 52 51 50 50 49 46 45 45 45 46 48 47 46 46 47 45 44 43 41 40 39 38 38 38 38 37
28 29 31 32 34 36 39 42 47 51 54 57 61 62 64 68 71 74 78 82 86 87 88 88 88 88 87 85 84 84 84 83 81 78 73 71 73 73 72 72 70 70 70 66 60 58 59 61 62 62 60 58 58 61 61 58 55 54 54 55 54 52 52 52 50 47 47 49 50 52 51 48 46 47 47 47 47 45 42 40 39 39 40 41 41
27 28 30 31 33 34 36 39 42 46 50 54 57 60 63 65 68 71 75 80 85 87 88 89 89 90 90 89 87 86 86 86 85 83 78 74 75 76 76 76 75 73 74 73 67 62 61 63 65 65 64 62 60 61 64 63 60 58 58 58 56 55 55 56 55 52 50 52 54 54 54 51 49 49 49 49 48 46 43 42 41 40 39 40 40
26 27 28 30 32 33 34 36 39 41 45 50 53 57 61 63 66 69 73 77 83 86 89 90 91 91 92 92 92 90 88 87 87 87 84 80 78 79 79 79 78 77 78 78 75 70 65 64 67 68 69 68 66 64 65 67 66 63 61 59 58 59 59 59 60 58 55 55 56 56 55 54 53 52 51 50 48 46 44 44 43 41 38 38 37
21 24 26 28 30 31 33 35 37 39 41 45 49 53 57 61 65 68 71 76 80 85 88 90 91 92 93 94 96 96 93 90 89 89 89 86 83 82 82 82 81 80 80 81 82 78 72 67 67 69 70 71 71 69 68 70 71 69 65 63 61 61 62 62 63 62 57 54 56 58 56 55 55 55 54 53 49 46 45 45 43 41 41 40 38
17 18 21 24 27 30 31 33 35 37 39 42 45 49 53 58 62 66 70 74 79 83 87 90 92 93 94 95 98 100 100 96 93 92 92 91 89 87 86 85 85 83 81 82 84 85 81 75 71 70 71 71 73 73 72 72 74 74 72 69 65 63 63 64 64 64 61 56 55 58 58 57 56 55 56 56 53 49 46 46 45 45 44 43 41
15 15 17 19 22 26 29 31 33 35 37 40 42 45 49 53 58 63 68 72 76 81 85 89 93 94 95 96 98 101 104 103 101 99 97 95 94 92 91 90 90 89 86 84 86 88 87 83 78 76 75 73 74 76 76 74 75 78 77 75 71 67 66 66 64 63 63 61 58 58 60 62 59 56 57 58 56 53 50 49 49 49 47 45 44
17 17 16 17 18 21 24 28 31 34 36 38 40 43 46 49 53 58 63 68 73 78 83 87 92 95 96 97 99 101 104 107 107 106 104 102 100 98 97 96 95 95 93 89 89 90 90 87 83 81 80 78 76 77 79 78 77 79 81 79 76 73 71 70 67 65 64 65 62 58 60 64 62 58 58 60 57 54 53 52 51 51 49 47 47
19 19 19 19 19 20 21 23 26 30 34 37 39 42 44 47 51 54 59 64 69 75 80 85 89 94 97 98 100 101 104 107 109 110 110 109 108 106 104 102 100 100 99 97 95 94 93 91 88 85 84 83 80 79 80 81 80 80 82 82 82 79 76 73 71 69 68 67 64 60 59 62 63 60 59 60 58 54 55 55 53 52 51 50 50
22 22 22 22 23 23 23 24 25 27 30 34 37 41 44 46 49 52 56 60 65 70 76 81 87 92 96 98 101 102 104 106 109 111 112 112 111 110 109 108 106 104 102 102 101 99 98 96 94 91 88 86 84 82 81 82 83 82 81 83 85 85 82 78 76 75 73 70 68 65 61 61 63 61 58 59 59 57 57 58 56 54 52 51 51
25 25 25 26 26 27 27 28 28 29 30 32 34 37 41 44 47 50 53 57 61 66 71 77 83 88 94 97 100 102 104 106 108 111 113 113 113 113 112 111 110 109 106 105 104 103 102 101 99 97 94 91 89 87 85 84 85 85 82 82 85 87 85 84 82 81 78 74 73 70 64 62 65 63 59 59 60 60 61 60 58 55 53 52 50
27 27 28 28 29 30 31 32 32 33 34 34 35 36 38 41 44 47 51 54 57 61 66 71 76 82 88 94 98 101 103 105 107 110 113 115 115 115 114 114 113 112 111 110 108 107 106 105 103 101 99 97 94 92 91 88 86 87 87 86 85 85 84 83 83 83 81 80 78 73 65 64 67 66 63 61 60 61 63 61 59 57 55 54 54
Wind_Direction
235 239 242 244 246 245 242 242 243 245 247 251 254 253 256 261 262 262 263 264 264 264 265 267 270 270 269 270 273 276 279 279 280 280 282 285 288 292 293 287 284 285 288 291 292 294 295 295 298 303 309 316 320 325 328 325 324 327 335 340 337 331 327 325 333 353 4 0 4 10 13 33 49 49 41 33 29 26 25 21 16 11 10 12 12
236 237 240 244 250 251 246 247 247 245 245 248 250 250 254 258 258 259 260 262 263 261 261 265 269 271 272 272 274 277 279 279 280 281 282 285 287 289 291 288 284 283 285 289 291 293 294 293 296 300 308 314 319 326 329 326 324 327 334 338 337 330 324 321 328 347 3 3 7 10 14 34 40 40 36 32 30 27 24 19 15 12 12 13 13
238 237 239 243 249 253 251 253 255 250 244 246 250 251 254 258 260 262 260 259 261 261 260 264 267 269 271 272 274 277 279 280 281 281 282 284 287 288 289 286 282 280 282 286 288 291 292 291 293 298 307 313 318 326 329 327 325 327 333 337 336 330 321 316 322 337 358 5 10 13 16 29 30 34 32 30 33 28 23 17 13 10 11 13 12
239 239 239 243 248 249 249 253 259 256 247 247 251 254 257 260 264 265 264 263 265 264 262 262 264 266 269 272 274 277 278 279 280 281 283 285 287 288 288 284 280 278 280 282 286 290 292 290 291 296 306 312 318 327 330 328 327 328 331 335 335 330 319 311 316 326 347 2 11 18 18 17 19 24 24 28 33 28 21 15 11 9 9 11 11
239 239 239 241 246 247 247 251 257 257 254 253 252 254 258 262 266 268 268 268 267 265 263 263 262 262 267 271 272 274 276 279 280 280 283 285 287 288 287 283 280 278 277 280 285 290 291 288 289 295 304 310 318 327 330 329 327 327 330 332 334 332 318 307 311 317 331 351 7 21 21 359 8 14 18 24 28 22 18 14 10 8 8 10 13
238 239 238 238 242 245 247 252 255 253 255 257 255 254 257 261 264 267 269 269 268 266 265 265 264 263 264 267 270 272 275 279 280 280 283 285 287 288 285 281 279 277 274 277 283 288 288 285 287 295 303 309 317 327 330 329 328 327 329 330 332 333 320 304 306 309 315 332 352 10 202 254 353 4 10 17 20 15 14 13 10 6 6 10 14
238 238 237 237 239 243 246 251 253 251 252 254 254 254 255 259 263 265 266 269 269 268 266 265 265 264 263 264 269 271 274 278 279 281 283 284 285 285 282 279 278 275 273 275 279 283 284 284 287 294 302 308 316 326 330 329 328 327 328 328 330 333 322 303 302 305 305 314 329 337 219 212 324 354 359 7 11 8 9 10 8 6 5 8 12
236 237 237 237 238 242 245 248 250 251 250 250 251 251 252 255 263 266 267 270 271 271 269 267 265 264 262 263 267 268 271 277 277 279 283 283 283 282 278 275 273 272 272 274 276 279 280 281 285 293 302 308 315 324 329 329 328 327 327 327 328 333 325 303 298 301 298 301 311 310 237 213 259 341 347 357 1 3 6 7 7 4 3 6 9
234 235 236 237 238 241 244 247 249 249 249 249 250 250 249 252 258 265 268 272 273 272 271 270 268 265 263 264 265 265 270 274 274 276 280 281 282 279 276 272 270 268 268 272 275 276 276 277 282 292 302 307 314 323 328 329 329 327 327 326 327 332 326 304 296 296 292 289 296 296 248 218 240 321 336 349 355 2 8 7 4 2 1 3 5
233 233 234 235 236 238 242 244 245 246 247 249 250 248 248 250 254 259 262 267 273 274 273 272 271 268 266 267 266 266 270 273 272 275 276 278 280 279 275 270 268 265 264 268 273 276 273 273 280 290 301 306 313 321 326 329 329 327 327 325 327 332 325 306 295 292 288 283 285 284 245 220 240 291 324 346 355 4 9 7 2 359 358 359 0
234 232 233 234 235 237 239 241 244 246 247 248 249 249 248 249 253 256 257 262 271 274 274 274 274 272 269 270 268 267 270 271 272 273 273 274 277 277 273 268 265 263 262 265 271 274 272 271 277 288 299 306 312 319 325 329 330 328 328 325 325 329 325 312 296 288 285 281 280 272 234 218 239 271 312 351 1 6 9 6 1 357 355 353 353
235 234 234 235 237 237 238 240 243 245 247 247 248 249 249 249 252 255 258 263 267 268 272 275 276 273 270 271 270 267 267 268 270 271 270 271 273 273 271 267 264 260 257 261 266 270 268 269 276 285 296 304 310 317 323 329 331 329 328 326 324 327 325 316 299 286 282 279 277 259 220 218 241 259 290 352 5 5 5 4 359 355 353 350 347
234 234 235 236 236 236 237 238 240 242 245 246 247 249 250 252 254 257 260 264 263 261 264 268 270 271 271 274 271 266 265 267 268 269 269 269 269 270 269 266 263 258 253 254 260 266 265 265 274 283 293 301 307 314 321 327 331 330 328 326 323 324 324 317 300 284 281 278 271 240 212 221 243 253 274 336 355 358 359 357 353 350 350 348 344
234 234 234 234 235 235 235 236 238 240 244 245 244 246 250 253 257 258 259 260 258 256 258 260 264 267 271 276 272 265 263 265 267 269 268 266 267 269 268 265 263 256 250 250 257 265 264 262 271 280 289 297 304 312 318 325 330 330 329 327 322 321 321 315 300 285 281 279 261 222 211 225 244 256 277 319 339 348 350 347 344 341 342 341 339
235 234 233 233 234 235 236 236 237 239 242 243 242 244 246 249 253 254 254 254 253 253 255 257 259 263 267 272 273 265 260 261 265 268 267 265 267 270 269 265 262 256 250 249 255 262 264 263 269 277 285 293 300 310 316 322 328 330 328 326 322 317 315 310 296 284 282 278 253 219 216 229 243 262 291 318 330 335 338 335 331 332 333 333 332
236 235 234 233 233 234 236 237 237 238 240 242 242 244 245 246 249 250 248 249 251 253 256 257 257 260 264 266 269 264 257 257 262 264 264 265 269 271 270 266 262 257 251 249 253 259 262 264 268 274 281 288 296 305 312 318 325 329 328 326 321 313 308 302 289 282 282 275 253 226 225 234 242 274 307 318 324 325 326 323 317 321 327 328 327
236 236 236 234 233 234 236 238 238 237 239 241 242 245 244 244 247 247 248 252 255 256 257 257 257 259 260 261 264 264 257 254 258 260 261 265 272 274 272 267 261 257 252 249 251 255 259 261 265 270 278 285 291 298 305 313 321 327 327 324 320 309 297 291 283 279 279 274 256 238 237 241 248 277 304 311 316 314 312 310 308 314 321 325 324
238 237 237 236 235 235 235 237 239 239 240 241 243 245 243 242 244 244 249 256 259 259 258 258 259 258 257 258 261 265 261 254 253 257 258 261 267 269 271 269 262 256 253 250 251 254 256 257 259 265 274 282 288 293 300 308 317 324 326 322 316 306 288 278 274 275 275 271 258 247 247 250 257 274 288 298 304 303 301 301 304 311 317 321 322
240 239 238 237 237 236 236 237 239 239 239 240 243 244 241 239 242 242 245 251 254 255 258 261 263 260 258 258 258 263 265 256 250 252 254 255 258 263 271 273 267 258 253 252 252 253 253 253 255 261 268 277 283 287 293 302 311 319 324 322 314 302 283 268 266 269 272 270 262 252 250 254 261 269 278 287 292 292 295 299 305 312 316 318 320
244 241 240 238 238 238 237 237 239 239 238 238 240 241 238 237 240 241 242 244 246 249 255 259 262 264 263 258 255 258 262 257 250 249 250 250 251 252 251 256 261 257 250 249 253 253 251 249 251 257 265 272 276 278 285 296 305 313 320 322 316 301 278 261 259 263 269 275 274 265 260 260 263 268 275 283 286 287 293 302 310 315 318 320 320
247 245 242 240 239 239 239 239 239 239 238 237 237 238 236 236 238 241 242 241 242 247 252 254 256 263 266 258 253 254 257 255 250 246 247 248 248 249 242 239 246 248 241 239 248 252 249 246 249 256 262 267 270 272 279 289 299 308 314 318 317 306 282 257 253 257 266 279 287 285 282 278 275 276 279 282 283 288 298 308 316 320 323 324 322
247 248 246 244 241 241 241 241 241 240 239 237 237 238 237 235 236 239 241 240 241 247 251 250 252 260 263 258 253 252 254 253 247 244 246 247 247 251 250 243 242 243 235 231 241 249 248 246 249 256 263 267 269 270 273 279 291 305 311 313 315 309 290 260 247 252 261 274 289 297 300 299 293 286 283 283 283 291 303 313 319 325 330 331 326
247 248 248 247 245 244 245 244 242 241 239 238 240 241 240 238 236 236 238 239 242 247 249 248 250 255 258 258 254 252 252 249 243 240 241 244 246 250 251 245 242 242 235 231 236 243 246 247 249 256 266 271 271 270 271 275 286 301 308 309 311 309 294 265 244 246 255 266 280 295 304 308 306 296 287 283 284 292 303 311 318 326 335 337 331
247 247 248 248 248 248 248 246 242 239 239 239 241 242 241 240 238 235 234 238 242 244 245 245 247 250 252 254 253 252 251 245 238 236 238 242 246 249 248 241 238 242 240 237 236 237 241 245 247 255 267 271 269 271 272 274 284 297 304 306 307 306 297 271 247 243 250 259 270 283 293 301 304 300 292 286 285 290 296 303 311 320 330 336 332
248 247 247 247 248 249 249 247 243 238 237 238 241 242 241 240 239 236 234 237 239 239 239 240 244 247 247 247 248 249 250 243 235 234 239 244 247 247 245 239 236 241 244 243 240 238 241 246 248 252 260 266 267 271 272 272 284 295 297 300 302 303 298 281 256 244 246 253 261 271 279 287 293 296 294 290 288 289 291 296 304 310 318 326 324
248 246 245 246 247 248 248 247 243 238 236 237 239 240 240 238 236 237 236 236 235 234 234 237 240 243 243 242 243 246 249 244 235 233 239 244 246 246 246 245 241 241 244 247 245 241 242 247 248 247 252 260 264 266 268 275 286 289 289 292 295 297 296 285 265 249 244 248 255 263 270 277 282 286 289 291 291 290 289 292 296 301 306 312 314
249 247 244 243 244 245 245 244 242 239 236 236 235 235 237 237 235 236 237 235 233 232 233 236 237 239 240 239 240 243 246 243 236 234 237 242 243 243 246 247 243 242 245 248 247 242 241 244 246 244 246 253 260 262 267 277 282 280 281 284 288 292 292 285 270 255 246 245 249 256 265 272 278 281 284 287 290 291 291 291 293 296 299 304 310
250 249 246 242 240 240 241 241 241 238 235 235 235 233 234 236 234 234 234 233 232 232 234 235 233 234 236 234 236 239 241 240 237 235 237 241 241 239 241 242 241 243 245 244 243 241 241 245 249 248 243 245 253 258 264 274 274 272 277 282 282 286 288 284 273 260 250 245 247 252 260 268 275 279 281 282 286 290 292 293 294 296 299 303 307
248 248 247 243 238 237 239 240 240 237 234 234 235 233 234 234 233 233 233 232 231 230 231 231 229 230 231 230 233 235 236 238 236 234 234 237 239 239 239 240 241 242 241 238 238 240 242 246 251 252 246 243 246 251 259 267 267 267 275 281 281 281 283 282 275 264 255 247 246 250 256 265 273 277 278 279 280 284 289 292 295 298 300 302 306
246 244 244 243 238 234 236 239 239 238 234 232 233 234 235 235 233 233 234 233 230 229 228 228 227 228 229 229 232 233 234 236 236 234 232 233 237 241 240 239 241 241 237 234 233 237 242 246 250 253 250 244 242 245 252 259 264 267 274 281 282 280 278 278 275 269 260 251 247 249 254 261 268 273 275 276 276 278 281 286 291 295 299 302 305
246 242 240 240 237 233 233 236 239 239 237 233 232 233 235 236 234 232 233 234 231 229 228 226 225 226 227 228 230 230 232 234 235 235 233 232 236 240 239 239 241 238 234 233 234 237 242 245 248 251 249 244 243 243 243 247 260 271 275 278 281 280 277 274 272 271 265 257 251 249 253 258 264 268 271 273 274 275 277 280 286 291 296 300 304
244 241 237 235 235 232 231 234 236 237 237 235 232 231 233 235 234 233 233 234 232 231 228 226 225 225 226 227 228 228 229 230 232 234 232 232 235 238 237 238 240 235 231 232 234 238 241 242 245 248 248 245 244 242 239 241 249 259 266 271 276 278 277 272 268 268 266 262 257 253 253 256 261 264 267 268 270 271 273 277 281 287 292 298 302
242 240 236 232 232 230 228 231 234 233 234 233 232 231 231 232 233 233 233 233 231 230 229 228 228 227 226 227 227 227 227 227 229 231 230 230 233 235 235 237 238 233 229 230 232 235 240 240 241 247 249 247 246 243 238 236 238 243 253 264 271 274 274 271 267 265 264 263 261 258 255 255 258 261 263 264 266 268 269 273 277 282 288 293 298
240 237 235 231 230 229 228 230 234 233 232 231 230 230 230 230 232 233 233 232 230 230 230 229 228 227 226 226 227 227 227 226 227 229 228 228 230 232 232 233 233 230 228 231 232 236 242 242 241 246 248 246 245 244 237 231 230 233 240 250 259 266 269 270 267 264 262 262 262 261 258 255 256 259 261 262 263 265 266 270 274 278 283 288 292
238 234 233 230 230 230 229 230 232 233 233 231 229 228 229 229 230 232 232 231 230 229 230 229 227 226 225 225 227 227 227 226 227 228 228 227 228 230 230 230 229 227 227 230 231 235 243 245 244 245 244 241 239 239 236 231 227 226 228 230 238 250 261 266 267 263 261 261 262 263 261 257 255 256 258 260 260 261 263 267 272 276 281 285 288
241 234 231 230 230 230 230 230 232 233 233 233 231 228 228 229 229 230 231 231 230 229 229 228 226 225 224 224 226 227 226 226 227 228 229 229 228 229 228 227 226 225 227 227 227 232 240 244 244 243 240 237 234 233 233 232 227 225 228 228 229 236 249 258 261 260 259 260 262 263 263 259 256 254 255 257 257 258 260 264 270 274 278 282 287
244 238 232 230 229 228 229 230 231 231 232 235 233 230 228 228 228 229 229 229 229 228 228 227 226 225 223 222 224 225 224 225 227 229 230 230 229 228 228 227 224 224 227 228 229 234 238 241 243 242 239 236 233 230 229 230 230 230 232 234 233 233 236 241 246 250 252 255 259 262 262 259 256 254 253 254 255 255 257 261 267 272 277 280 285
247 243 237 232 229 227 228 229 230 231 232 235 235 231 228 227 228 228 228 228 228 227 227 226 225 224 223 222 222 224 224 224 226 228 229 230 230 228 228 228 225 225 229 230 231 235 238 241 243 243 241 238 235 232 228 228 231 233 234 236 237 236 237 237 238 239 241 245 250 255 257 256 254 254 252 251 252 253 255 258 263 269 275 279 284
252 249 244 238 234 230 228 229 229 231 232 233 234 232 229 228 228 228 227 227 227 226 225 225 224 223 223 222 222 224 224 224 225 227 229 230 231 229 229 229 227 226 229 230 231 234 237 240 242 242 242 239 236 235 232 229 233 236 236 235 236 240 242 242 241 239 238 241 244 246 250 251 251 252 252 249 248 250 253 258 263 267 272 276 282
253 253 251 246 242 237 233 232 231 231 232 232 232 233 231 230 229 228 227 226 226 226 225 225 224 222 222 222 223 224 225 225 225 227 228 230 231 230 229 229 229 228 230 231 231 233 236 237 239 242 244 242 238 236 234 231 233 235 235 233 236 242 242 241 241 241 240 241 244 246 249 250 249 249 251 250 248 247 251 257 263 268 271 274 279
254 253 252 250 248 244 240 237 235 233 233 232 232 232 232 232 231 230 229 227 227 226 226 225 225 223 222 222 223 224 225 225 226 227 228 229 230 230 229 229 230 230 231 232 232 232 235 237 239 241 244 244 240 236 234 232 231 232 233 234 239 243 241 239 240 242 242 242 244 246 247 248 248 248 250 252 250 249 251 257 265 271 273 275 278
257 254 252 251 250 248 245 242 240 238 236 235 234 233 233 233 233 232 231 229 228 228 227 226 226 225 223 222 223 224 225 225 225 226 228 229 229 229 229 229 230 231 231 232 233 233 234 237 239 240 242 244 242 237 234 232 231 232 234 236 239 239 239 240 243 245 245 243 244 246 246 247 249 249 249 251 251 251 254 259 266 271 273 276 279
260 256 253 251 249 249 247 246 244 241 239 238 237 235 234 234 233 232 232 231 230 229 228 227 227 226 225 223 223 224 224 225 225 226 228 229 229 228 229 230 231 231 232 233 234 233 234 236 239 240 241 242 242 239 234 232 231 232 233 235 237 238 239 242 245 248 248 245 244 247 247 247 249 250 249 249 250 252 254 258 264 267 269 274 278
266 260 256 252 250 248 247 246 245 244 242 240 239 237 236 235 234 233 233 232 231 230 230 229 228 227 226 225 224 225 225 225 225 225 227 229 230 229 229 231 231 231 232 234 235 235 234 234 237 239 240 240 240 239 236 233 232 232 232 234 236 239 241 243 246 248 249 246 244 245 247 247 247 248 249 248 248 251 252 256 260 263 267 272 274
275 269 263 257 253 250 248 246 246 245 244 243 241 240 238 236 235 234 233 233 232 231 231 231 230 228 227 226 225 226 226 226 226 226 227 228 230 231 231 232 233 233 233 233 234 235 235 234 235 238 240 240 240 238 236 234 232 232 233 235 236 238 241 243 246 248 248 247 244 243 246 248 247 246 248 248 248 249 250 253 255 257 263 268 269
286 281 274 266 259 255 251 250 248 247 245 245 244 243 241 239 238 236 235 234 233 233 232 232 232 231 229 227 227 227 228 228 227 227 227 228 230 231 232 233 234 236 236 235 234 235 235 235 235 237 240 241 240 237 236 234 233 233 234 235 236 237 239 242 245 247 248 249 247 244 244 247 248 247 247 248 248 248 249 253 254 254 258 261 262
293 291 286 280 272 263 257 253 251 249 248 247 245 244 243 242 241 239 237 236 235 234 234 234 233 233 231 230 228 228 229 229 229 229 229 229 230 231 233 234 235 236 238 237 236 235 235 235 235 236 238 240 239 237 237 235 233 233 234 235 236 237 238 241 243 246 248 249 249 247 245 245 247 248 248 247 247 247 249 252 252 252 254 256 257
291 291 289 287 282 277 269 261 256 252 250 249 247 246 244 243 242 241 239 238 236 235 235 235 235 235 234 232 231 230 230 231 231 231 231 231 231 232 233 234 234 236 237 238 238 237 236 236 236 236 237 239 240 238 237 236 235 234 234 235 237 237 237 239 242 244 247 248 249 249 248 246 246 247 248 248 246 246 247 248 248 250 253 255 256
290 289 289 287 285 282 279 273 267 261 256 253 251 249 247 246 244 243 241 240 238 237 236 235 235 235 235 235 233 232 231 231 232 232 232 232 233 233 233 234 234 235 236 237 238 238 238 237 237 237 237 238 239 239 238 237 236 236 235 235 237 238 238 239 241 243 244 246 247 247 248 248 247 247 247 248 246 245 245 245 246 249 252 254 255
289 288 287 286 284 282 280 278 275 271 267 262 257 254 252 250 248 247 245 243 242 240 239 237 237 236 236 236 236 235 234 233 233 233 233 233 233 234 234 234 234 235 235 236 237 239 239 239 239 238 237 237 238 239 239 238 237 237 236 235 236 238 238 239 241 242 243 243 244 245 245 247 248 248 247 248 246 245 245 245 246 249 251 253 253
285 284 283 281 280 279 278 276 275 273 272 269 266 262 258 255 253 251 249 247 245 244 242 241 240 239 238 238 238 237 236 235 235 234 234 234 234 235 235 235 235 235 235 235 236 238 240 240 240 239 239 238 238 238 238 238 238 237 237 236 237 238 239 239 241 243 244 244 245 245 244 245 247 248 247 247 245 245 246 245 246 247 249 251 253
Height
10758 10758 10758 10759 10761 10763 10764 10765 10768 10769 10770 10771 10772 10773 10774 10776 10778 10779 10780 10780 10782 10782 10783 10783 10783 10785 10786 10787 10788 10789 10789 10790 10791 10792 10792 10793 10793 10793 10793 10793 10793 10792 10792 10792 10792 10792 10792 10792 10792 10790 10789 10787 10785 10783 10781 10778 10775 10772 10770 10768 10766 10763 10761 10758 10756 10755 10754 10753 10751 10749 10749 10748 10747 10746 10746 10745 10744 10743 10742 10741 10740 10739 10738 10737 10736
10754 10754 10755 10756 10758 10761 10762 10763 10764 10766 10768 10768 10769 10771 10771 10772 10774 10776 10776 10777 10778 10778 10779 10779 10780 10782 10783 10783 10785 10786 10786 10787 10788 10788 10789 10789 10790 10790 10790 10790 10790 10789 10789 10789 10789 10790 10790 10790 10789 10788 10787 10786 10784 10782 10780 10777 10774 10772 10769 10767 10765 10763 10761 10758 10756 10755 10754 10753 10751 10750 10749 10749 10748 10747 10746 10745 10745 10744 10743 10742 10741 10739 10738 10737 10736
10750 10751 10752 10753 10755 10758 10760 10761 10761 10763 10766 10766 10766 10768 10768 10769 10770 10771 10772 10773 10774 10774 10775 10776 10778 10779 10779 10780 10781 10783 10783 10784 10785 10785 10786 10786 10786 10787 10787 10787 10787 10787 10787 10787 10787 10787 10788 10788 10787 10786 10785 10784 10782 10781 10778 10776 10773 10771 10768 10766 10764 10763 10760 10758 10756 10755 10754 10753 10752 10751 10750 10749 10749 10748 10747 10746 10745 10744 10743 10742 10741 10740 10738 10737 10736
10746 10748 10749 10749 10751 10754 10756 10757 10758 10760 10763 10765 10765 10765 10765 10766 10766 10767 10768 10769 10770 10771 10772 10774 10775 10775 10776 10776 10778 10779 10780 10781 10782 10782 10783 10783 10783 10784 10784 10784 10784 10784 10784 10784 10784 10785 10785 10785 10785 10784 10783 10782 10780 10779 10777 10774 10772 10770 10767 10765 10764 10762 10760 10758 10756 10755 10754 10753 10751 10751 10750 10750 10749 10748 10747 10746 10745 10745 10744 10742 10741 10740 10738 10737 10736
10742 10744 10745 10746 10747 10748 10751 10753 10756 10758 10759 10762 10763 10763 10763 10763 10763 10763 10764 10765 10766 10768 10769 10770 10772 10772 10773 10774 10775 10776 10777 10778 10779 10780 10780 10781 10781 10781 10781 10782 10782 10782 10782 10781 10782 10783 10783 10783 10783 10782 10781 10780 10779 10777 10775 10773 10771 10769 10766 10764 10763 10761 10760 10758 10756 10754 10753 10752 10751 10750 10750 10750 10749 10748 10747 10747 10746 10745 10744 10743 10741 10740 10739 10737 10736
10737 10739 10741 10742 10743 10744 10745 10748 10751 10754 10756 10758 10759 10760 10760 10760 10760 10760 10760 10760 10762 10764 10765 10767 10768 10769 10770 10771 10772 10773 10774 10775 10775 10776 10777 10778 10778 10778 10779 10779 10779 10779 10779 10779 10780 10781 10781 10781 10781 10780 10779 10778 10777 10776 10774 10772 10770 10767 10765 10763 10762 10761 10759 10757 10756 10754 10753 10752 10751 10750 10749 10749 10749 10748 10747 10747 10746 10745 10744 10743 10741 10740 10739 10737 10736
10733 10734 10736 10738 10739 10740 10741 10743 10746 10749 10751 10754 10755 10757 10758 10758 10758 10757 10757 10757 10758 10760 10762 10763 10764 10765 10767 10768 10769 10770 10771 10772 10772 10773 10774 10775 10775 10775 10776 10776 10776 10776 10776 10776 10777 10779 10779 10779 10779 10778 10778 10777 10776 10775 10773 10771 10769 10766 10764 10762 10760 10759 10758 10757 10755 10754 10753 10751 10750 10750 10749 10749 10748 10748 10747 10747 10746 10745 10744 10743 10741 10740 10739 10738 10736
10729 10730 10732 10734 10735 10736 10738 10740 10742 10744 10746 10749 10751 10752 10754 10755 10755 10754 10754 10754 10755 10756 10758 10759 10761 10762 10764 10765 10766 10767 10768 10769 10769 10770 10770 10771 10771 10772 10772 10773 10773 10773 10773 10774 10775 10776 10777 10777 10776 10776 10776 10775 10774 10773 10772 10769 10767 10765 10763 10761 10759 10758 10757 10756 10755 10754 10752 10751 10750 10749 10749 10748 10748 10748 10747 10747 10746 10745 10744 10743 10741 10740 10739 10738 10736
10724 10726 10728 10730 10732 10733 10734 10736 10738 10739 10741 10743 10746 10748 10750 10751 10751 10751 10751 10752 10752 10754 10755 10756 10758 10759 10760 10762 10763 10765 10765 10766 10766 10767 10767 10767 10768 10768 10768 10769 10770 10770 10771 10771 10772 10774 10775 10774 10774 10775 10774 10774 10773 10772 10771 10768 10766 10764 10762 10760 10758 10757 10756 10756 10755 10753 10752 10750 10750 10749 10749 10749 10748 10747 10747 10746 10746 10745 10744 10742 10741 10740 10739 10737 10736
10719 10721 10723 10726 10728 10729 10731 10732 10734 10735 10736 10738 10741 10744 10745 10746 10748 10748 10749 10749 10750 10751 10752 10754 10755 10756 10758 10759 10761 10762 10762 10763 10763 10763 10763 10763 10763 10764 10765 10765 10766 10767 10768 10769 10770 10771 10772 10772 10772 10773 10772 10772 10771 10771 10769 10767 10765 10763 10761 10759 10757 10756 10756 10755 10754 10753 10751 10750 10749 10749 10749 10748 10748 10747 10746 10746 10745 10744 10743 10742 10741 10739 10738 10737 10735
10714 10716 10719 10721 10724 10726 10727 10728 10729 10731 10732 10734 10737 10740 10741 10742 10743 10745 10746 10747 10748 10749 10750 10751 10752 10754 10756 10757 10759 10760 10760 10760 10760 10760 10759 10759 10759 10760 10761 10762 10763 10764 10765 10767 10768 10769 10770 10770 10770 10771 10770 10770 10769 10769 10768 10766 10764 10762 10760 10758 10757 10756 10755 10755 10753 10752 10751 10749 10748 10748 10748 10748 10748 10747 10746 10745 10745 10744 10743 10742 10740 10739 10738 10737 10735
10709 10711 10714 10716 10719 10722 10723 10724 10725 10727 10729 10730 10733 10735 10736 10737 10740 10742 10744 10745 10746 10747 10748 10749 10750 10751 10753 10754 10755 10755 10756 10756 10757 10756 10756 10756 10755 10756 10757 10758 10759 10761 10762 10763 10765 10766 10768 10768 10768 10768 10768 10768 10767 10767 10766 10765 10763 10761 10759 10758 10756 10755 10754 10754 10753 10752 10750 10749 10748 10748 10748 10748 10748 10747 10746 10745 10744 10743 10742 10741 10740 10738 10737 10736 10735
10703 10705 10708 10711 10715 10718 10719 10719 10721 10723 10725 10727 10729 10730 10732 10735 10738 10741 10743 10743 10744 10745 10746 10747 10747 10748 10750 10751 10751 10751 10752 10753 10753 10753 10753 10752 10752 10752 10754 10755 10756 10758 10759 10761 10761 10763 10765 10766 10766 10766 10766 10766 10766 10765 10765 10763 10762 10760 10758 10757 10755 10754 10754 10753 10753 10751 10750 10749 10748 10748 10748 10748 10747 10747 10746 10745 10743 10743 10742 10741 10739 10738 10737 10735 10734
10697 10699 10702 10706 10710 10713 10714 10715 10717 10719 10721 10723 10725 10727 10729 10733 10736 10738 10739 10740 10740 10741 10743 10744 10744 10745 10747 10747 10747 10747 10749 10749 10749 10750 10750 10749 10749 10749 10750 10751 10753 10754 10756 10757 10759 10760 10762 10764 10764 10763 10763 10764 10763 10763 10763 10762 10760 10758 10757 10755 10754 10754 10753 10753 10752 10751 10750 10749 10748 10747 10747 10747 10747 10746 10746 10744 10743 10742 10741 10740 10739 10737 10736 10735 10733
10691 10694 10697 10700 10704 10707 10709 10711 10713 10715 10717 10719 10721 10724 10727 10731 10732 10733 10733 10733 10733 10735 10739 10741 10741 10742 10744 10744 10743 10744 10745 10745 10746 10746 10746 10746 10746 10746 10747 10748 10749 10751 10752 10754 10756 10757 10759 10760 10761 10761 10761 10761 10761 10761 10761 10760 10759 10757 10755 10754 10753 10753 10752 10752 10752 10751 10749 10748 10748 10747 10747 10747 10747 10746 10745 10744 10743 10742 10741 10740 10738 10737 10735 10734 10732
10684 10687 10690 10694 10698 10701 10703 10706 10709 10711 10713 10715 10718 10721 10724 10727 10727 10727 10727 10726 10727 10732 10735 10737 10738 10739 10740 10740 10739 10740 10740 10740 10742 10742 10742 10743 10743 10743 10743 10744 10746 10748 10749 10751 10753 10754 10756 10757 10757 10758 10758 10759 10759 10759 10758 10758 10757 10756 10754 10753 10752 10752 10751 10751 10751 10751 10749 10748 10747 10747 10747 10747 10746 10746 10745 10744 10743 10742 10740 10739 10738 10736 10735 10733 10732
10677 10680 10684 10687 10691 10695 10697 10700 10703 10707 10708 10710 10714 10718 10720 10722 10722 10723 10723 10722 10725 10729 10733 10734 10734 10735 10736 10736 10736 10736 10735 10736 10738 10738 10739 10740 10740 10740 10741 10742 10743 10744 10746 10748 10749 10751 10753 10754 10754 10755 10755 10755 10756 10757 10757 10756 10755 10754 10753 10752 10751 10751 10751 10751 10751 10750 10749 10748 10747 10747 10746 10746 10746 10745 10744 10743 10742 10741 10740 10739 10737 10736 10734 10733 10731
10669 10673 10676 10679 10683 10687 10691 10693 10697 10702 10705 10705 10708 10713 10716 10718 10718 10719 10719 10721 10723 10725 10728 10730 10730 10731 10731 10731 10732 10733 10732 10733 10733 10733 10735 10736 10736 10737 10738 10739 10741 10742 10742 10744 10746 10748 10749 10750 10751 10752 10752 10752 10752 10753 10754 10754 10753 10752 10751 10750 10750 10750 10749 10750 10750 10749 10749 10748 10747 10746 10746 10745 10745 10744 10743 10742 10741 10740 10739 10738 10737 10735 10734 10732 10730
10661 10665 10669 10672 10676 10679 10684 10688 10691 10696 10700 10701 10703 10708 10712 10714 10714 10715 10716 10718 10719 10719 10722 10725 10726 10726 10727 10728 10729 10729 10729 10729 10729 10729 10730 10732 10733 10734 10736 10739 10740 10740 10739 10740 10742 10744 10745 10747 10748 10749 10749 10750 10750 10750 10751 10751 10752 10751 10750 10749 10748 10748 10748 10748 10749 10749 10748 10747 10746 10746 10745 10745 10744 10743 10742 10741 10740 10740 10738 10737 10736 10735 10733 10732 10730
10653 10657 10661 10664 10668 10672 10677 10682 10685 10689 10694 10696 10698 10703 10707 10709 10710 10710 10712 10713 10714 10715 10716 10719 10722 10722 10722 10723 10724 10725 10725 10725 10725 10725 10726 10726 10728 10730 10733 10736 10737 10736 10736 10737 10738 10739 10741 10743 10744 10746 10747 10747 10747 10747 10747 10748 10749 10749 10750 10749 10747 10747 10747 10747 10748 10748 10747 10746 10746 10745 10744 10744 10743 10742 10741 10741 10740 10739 10738 10737 10735 10734 10733 10731 10729
10644 10648 10652 10657 10661 10666 10672 10676 10680 10684 10688 10691 10693 10697 10701 10703 10704 10706 10708 10709 10709 10710 10711 10714 10718 10718 10718 10718 10718 10719 10720 10720 10720 10721 10721 10722 10723 10724 10727 10729 10730 10731 10732 10732 10733 10735 10737 10739 10741 10743 10744 10744 10745 10745 10745 10745 10746 10746 10747 10747 10746 10745 10745 10746 10746 10746 10746 10745 10745 10744 10744 10743 10742 10741 10741 10740 10739 10738 10737 10736 10735 10733 10732 10730 10728
10636 10639 10643 10649 10654 10660 10666 10672 10676 10678 10681 10685 10688 10690 10694 10697 10699 10701 10704 10705 10704 10706 10707 10709 10713 10714 10714 10713 10713 10714 10715 10715 10715 10716 10717 10718 10719 10720 10722 10723 10723 10725 10727 10728 10730 10732 10733 10736 10738 10740 10741 10741 10742 10743 10743 10743 10743 10744 10744 10744 10744 10744 10744 10744 10745 10745 10745 10744 10744 10743 10743 10742 10741 10740 10740 10739 10738 10737 10736 10735 10734 10733 10731 10729 10727
10627 10631 10635 10640 10646 10653 10661 10667 10670 10671 10674 10678 10682 10684 10686 10690 10693 10695 10697 10699 10700 10702 10703 10705 10707 10709 10709 10710 10709 10709 10710 10711 10711 10712 10713 10713 10714 10715 10717 10718 10719 10720 10722 10724 10726 10728 10730 10732 10734 10736 10738 10738 10739 10740 10740 10740 10741 10741 10741 10742 10742 10742 10742 10742 10743 10743 10743 10743 10742 10742 10741 10741 10740 10739 10739 10738 10737 10736 10735 10734 10733 10732 10730 10728 10726
10618 10622 10625 10631 10638 10644 10651 10656 10658 10661 10665 10669 10673 10675 10678 10682 10685 10687 10689 10692 10695 10697 10698 10700 10702 10704 10705 10706 10705 10705 10706 10706 10707 10709 10709 10709 10711 10711 10712 10714 10715 10716 10718 10720 10722 10724 10726 10728 10730 10732 10734 10735 10735 10736 10736 10736 10737 10739 10739 10739 10740 10740 10740 10740 10741 10741 10742 10741 10741 10740 10740 10739 10738 10738 10737 10737 10736 10735 10734 10733 10732 10730 10729 10727 10725
10606 10611 10615 10622 10629 10633 10638 10642 10646 10652 10657 10661 10663 10665 10670 10673 10675 10678 10682 10686 10690 10692 10693 10695 10697 10699 10701 10703 10702 10701 10702 10702 10704 10705 10706 10707 10708 10708 10709 10710 10711 10712 10713 10716 10718 10720 10721 10723 10726 10728 10730 10731 10732 10733 10733 10733 10734 10735 10736 10737 10737 10738 10738 10738 10738 10739 10739 10739 10739 10738 10738 10737 10737 10736 10735 10735 10734 10733 10732 10731 10730 10729 10728 10726 10725
10592 10597 10603 10611 10619 10623 10626 10629 10634 10641 10648 10651 10652 10656 10660 10661 10665 10671 10675 10679 10683 10685 10686 10689 10692 10694 10696 10699 10699 10699 10699 10699 10701 10703 10703 10704 10706 10706 10706 10707 10707 10707 10709 10711 10714 10716 10718 10720 10722 10724 10726 10727 10728 10729 10730 10730 10731 10732 10733 10734 10735 10735 10735 10736 10736 10736 10737 10737 10737 10736 10736 10735 10735 10734 10733 10733 10732 10731 10730 10729 10729 10727 10726 10725 10724
10579 10584 10592 10600 10608 10613 10614 10614 10619 10628 10635 10637 10639 10643 10645 10646 10653 10661 10665 10670 10674 10677 10680 10683 10686 10689 10692 10694 10695 10695 10695 10696 10698 10699 10700 10702 10703 10704 10704 10703 10704 10704 10705 10708 10710 10712 10714 10716 10718 10720 10721 10723 10725 10726 10726 10727 10728 10729 10730 10731 10732 10733 10733 10733 10734 10734 10734 10734 10734 10734 10734 10733 10733 10732 10731 10731 10730 10729 10728 10727 10726 10725 10724 10723 10722
10570 10575 10582 10589 10595 10600 10602 10601 10605 10615 10622 10623 10625 10631 10632 10634 10642 10649 10653 10660 10665 10667 10671 10675 10678 10681 10685 10687 10688 10689 10690 10692 10694 10694 10696 10697 10698 10699 10699 10699 10700 10701 10702 10704 10705 10707 10710 10712 10714 10716 10718 10720 10721 10722 10723 10725 10725 10726 10727 10728 10729 10730 10731 10731 10731 10731 10731 10732 10732 10732 10731 10731 10730 10730 10729 10728 10728 10727 10726 10725 10724 10723 10722 10721 10720
10563 10568 10573 10578 10583 10589 10593 10592 10593 10601 10609 10612 10616 10621 10623 10627 10635 10641 10645 10650 10653 10656 10660 10665 10669 10673 10676 10679 10681 10683 10685 10687 10688 10689 10690 10691 10692 10693 10694 10694 10695 10697 10698 10700 10701 10703 10705 10708 10709 10711 10714 10716 10718 10719 10720 10722 10722 10723 10724 10725 10726 10727 10728 10728 10728 10729 10729 10729 10729 10729 10729 10728 10728 10727 10727 10726 10725 10724 10724 10723 10722 10721 10720 10719 10718
10556 10560 10563 10568 10573 10579 10583 10583 10584 10592 10599 10602 10607 10613 10615 10621 10631 10636 10638 10641 10645 10648 10654 10658 10663 10667 10671 10673 10675 10676 10678 10681 10683 10684 10686 10688 10688 10688 10689 10691 10692 10693 10694 10695 10697 10698 10700 10703 10704 10707 10711 10712 10713 10715 10716 10718 10719 10720 10721 10722 10723 10725 10725 10725 10725 10726 10726 10726 10726 10726 10726 10726 10725 10725 10724 10724 10723 10722 10721 10721 10720 10719 10718 10717 10716
10549 10552 10555 10560 10565 10569 10572 10573 10577 10584 10589 10592 10598 10604 10608 10614 10622 10627 10629 10634 10639 10643 10649 10654 10658 10662 10664 10664 10666 10667 10671 10675 10678 10680 10682 10683 10682 10683 10684 10686 10687 10688 10689 10691 10693 10694 10695 10698 10700 10702 10706 10707 10708 10710 10712 10714 10715 10717 10718 10719 10720 10721 10723 10723 10723 10722 10723 10722 10723 10723 10723 10723 10723 10722 10722 10721 10721 10720 10719 10718 10717 10716 10715 10714 10713
10542 10545 10550 10554 10557 10560 10564 10566 10568 10573 10579 10583 10589 10594 10599 10605 10613 10617 10621 10626 10631 10636 10643 10649 10653 10655 10655 10655 10658 10660 10664 10668 10671 10673 10674 10675 10676 10677 10678 10680 10682 10683 10684 10686 10688 10688 10689 10692 10694 10696 10700 10702 10702 10704 10707 10709 10711 10713 10715 10716 10717 10718 10719 10720 10720 10719 10719 10719 10719 10719 10720 10720 10719 10719 10719 10718 10718 10717 10716 10715 10715 10714 10713 10712 10711
10537 10540 10544 10547 10549 10552 10556 10558 10559 10564 10569 10573 10579 10584 10589 10596 10604 10609 10612 10618 10623 10628 10634 10641 10645 10647 10648 10650 10653 10656 10658 10661 10663 10664 10665 10667 10669 10670 10672 10674 10676 10677 10679 10680 10682 10683 10683 10687 10690 10691 10694 10696 10697 10699 10702 10705 10706 10709 10711 10713 10713 10714 10715 10716 10717 10716 10716 10715 10715 10715 10716 10716 10716 10715 10715 10715 10715 10714 10714 10713 10712 10711 10710 10710 10709
10532 10534 10537 10540 10543 10546 10549 10550 10553 10557 10561 10564 10569 10574 10579 10587 10594 10599 10604 10609 10614 10619 10625 10632 10636 10639 10641 10643 10647 10650 10652 10653 10655 10655 10656 10660 10662 10663 10665 10666 10668 10670 10672 10674 10676 10677 10678 10681 10685 10686 10687 10690 10692 10694 10697 10699 10701 10703 10705 10707 10709 10710 10710 10711 10712 10713 10712 10712 10711 10711 10711 10712 10712 10711 10711 10711 10711 10711 10711 10710 10710 10709 10708 10708 10707
10528 10530 10532 10535 10538 10541 10542 10544 10547 10552 10555 10557 10561 10565 10571 10577 10584 10590 10595 10601 10606 10611 10616 10622 10626 10630 10633 10636 10639 10643 10645 10646 10647 10647 10649 10652 10654 10655 10657 10659 10661 10663 10665 10666 10667 10669 10671 10673 10677 10678 10680 10684 10686 10688 10691 10693 10696 10697 10697 10698 10702 10705 10705 10705 10706 10708 10708 10708 10707 10707 10707 10707 10707 10707 10707 10707 10708 10708 10708 10708 10707 10707 10706 10706 10705
10524 10525 10527 10530 10533 10535 10536 10538 10542 10546 10549 10551 10554 10558 10563 10568 10575 10580 10586 10592 10598 10603 10608 10613 10617 10621 10626 10629 10631 10635 10637 10639 10640 10641 10643 10645 10646 10648 10649 10652 10654 10656 10658 10659 10658 10659 10663 10666 10669 10672 10674 10678 10680 10682 10685 10688 10691 10692 10692 10692 10694 10697 10698 10698 10699 10701 10703 10704 10704 10703 10702 10702 10702 10703 10703 10703 10704 10704 10705 10705 10705 10704 10704 10704 10704
10520 10521 10523 10524 10527 10529 10531 10533 10536 10539 10542 10545 10548 10551 10555 10560 10566 10571 10576 10582 10588 10594 10599 10604 10609 10613 10618 10621 10623 10626 10629 10631 10633 10635 10637 10638 10639 10641 10643 10645 10647 10650 10652 10653 10652 10653 10657 10660 10663 10666 10669 10672 10674 10677 10680 10683 10686 10686 10687 10688 10688 10689 10690 10689 10689 10691 10694 10697 10698 10698 10698 10697 10697 10698 10699 10699 10700 10701 10702 10702 10702 10702 10702 10702 10702
10517 10518 10519 10520 10521 10523 10526 10528 10530 10533 10536 10539 10542 10544 10548 10553 10557 10562 10567 10572 10579 10585 10590 10595 10600 10605 10609 10612 10615 10619 10621 10623 10625 10628 10629 10630 10632 10634 10637 10639 10642 10644 10646 10647 10647 10648 10651 10655 10658 10660 10663 10666 10667 10670 10674 10677 10679 10679 10681 10682 10682 10683 10683 10682 10681 10683 10684 10687 10691 10692 10692 10691 10692 10692 10693 10695 10696 10697 10698 10699 10699 10699 10699 10699 10700
10514 10514 10515 10516 10517 10519 10521 10523 10525 10527 10530 10533 10536 10538 10542 10545 10549 10554 10559 10564 10570 10576 10581 10586 10591 10595 10600 10605 10607 10610 10613 10615 10617 10619 10620 10622 10625 10628 10630 10632 10635 10637 10639 10641 10642 10642 10646 10650 10652 10654 10657 10659 10660 10663 10667 10671 10672 10672 10674 10676 10676 10677 10677 10677 10678 10679 10679 10681 10684 10684 10684 10684 10686 10687 10688 10690 10692 10693 10694 10695 10695 10696 10696 10696 10696
10511 10511 10512 10513 10514 10515 10517 10518 10520 10522 10524 10527 10530 10533 10536 10539 10543 10547 10551 10556 10562 10567 10573 10577 10582 10587 10593 10597 10599 10602 10605 10606 10608 10610 10612 10615 10617 10620 10623 10625 10627 10629 10631 10634 10635 10636 10640 10644 10646 10648 10650 10652 10653 10655 10659 10663 10665 10665 10667 10669 10669 10669 10671 10673 10674 10675 10676 10678 10678 10677 10677 10679 10681 10683 10684 10686 10687 10689 10691 10691 10692 10692 10692 10693 10693
10508 10508 10509 10509 10510 10512 10513 10515 10516 10518 10520 10522 10525 10528 10531 10534 10537 10541 10545 10549 10554 10560 10565 10570 10574 10580 10586 10590 10592 10593 10595 10597 10599 10603 10605 10608 10609 10612 10615 10617 10619 10621 10623 10626 10628 10630 10634 10636 10639 10642 10643 10644 10646 10648 10651 10655 10658 10659 10660 10661 10662 10662 10664 10667 10668 10670 10673 10674 10672 10672 10673 10675 10678 10680 10681 10681 10682 10685 10687 10688 10689 10689 10689 10690 10689
10504 10505 10505 10506 10507 10508 10509 10511 10512 10514 10516 10518 10520 10523 10525 10528 10531 10535 10538 10542 10547 10551 10557 10562 10566 10571 10578 10583 10583 10584 10585 10587 10592 10596 10598 10599 10601 10603 10605 10608 10610 10613 10615 10617 10620 10623 10627 10630 10633 10635 10636 10637 10638 10640 10643 10646 10649 10651 10652 10654 10655 10656 10657 10660 10662 10664 10666 10667 10666 10666 10668 10671 10673 10674 10676 10677 10678 10681 10683 10684 10685 10685 10685 10686 10686
10500 10501 10501 10502 10503 10504 10506 10507 10508 10509 10511 10513 10515 10517 10520 10522 10525 10528 10531 10535 10539 10543 10548 10553 10557 10561 10568 10574 10574 10573 10575 10579 10584 10587 10589 10590 10592 10594 10596 10599 10601 10604 10606 10608 10611 10615 10619 10623 10625 10627 10628 10628 10629 10631 10634 10636 10638 10642 10644 10645 10647 10648 10650 10653 10655 10656 10658 10660 10661 10661 10663 10666 10667 10668 10670 10672 10674 10677 10679 10679 10679 10680 10681 10682 10683
10497 10497 10497 10498 10499 10500 10502 10502 10503 10505 10506 10507 10509 10511 10513 10516 10518 10521 10524 10527 10530 10534 10538 10543 10547 10551 10557 10563 10565 10563 10565 10571 10575 10577 10578 10581 10583 10586 10588 10589 10592 10595 10597 10600 10603 10607 10611 10614 10615 10617 10618 10619 10620 10622 10624 10627 10630 10632 10634 10636 10639 10641 10644 10646 10647 10648 10651 10654 10655 10656 10657 10660 10662 10664 10665 10667 10669 10672 10673 10673 10674 10675 10676 10677 10678
10494 10494 10494 10494 10495 10496 10497 10498 10499 10500 10501 10502 10504 10505 10507 10509 10511 10514 10516 10519 10522 10525 10529 10533 10537 10541 10546 10553 10555 10554 10555 10560 10565 10566 10568 10571 10573 10576 10578 10580 10582 10585 10588 10591 10594 10597 10600 10603 10605 10607 10608 10611 10613 10613 10615 10619 10622 10624 10625 10627 10630 10634 10636 10638 10640 10641 10643 10646 10648 10650 10651 10652 10655 10659 10660 10660 10663 10666 10667 10667 10668 10670 10671 10672 10673
10491 10491 10491 10491 10492 10492 10493 10494 10495 10496 10497 10498 10499 10500 10502 10503 10505 10507 10509 10512 10515 10517 10521 10524 10526 10530 10536 10541 10544 10544 10545 10549 10553 10555 10557 10560 10562 10565 10567 10569 10572 10575 10578 10583 10585 10586 10589 10592 10595 10597 10599 10603 10605 10604 10606 10609 10613 10614 10616 10618 10621 10625 10627 10630 10632 10635 10636 10637 10640 10643 10645 10644 10647 10653 10654 10653 10656 10660 10662 10662 10663 10664 10666 10667 10667
10489 10489 10489 10489 10489 10489 10489 10490 10490 10491 10492 10493 10494 10495 10496 10497 10498 10500 10502 10504 10507 10509 10512 10515 10516 10520 10524 10529 10533 10534 10535 10537 10540 10543 10546 10548 10551 10553 10556 10559 10562 10564 10569 10573 10574 10575 10578 10582 10586 10587 10589 10592 10594 10595 10596 10599 10603 10605 10607 10610 10613 10616 10619 10621 10625 10628 10629 10629 10632 10636 10637 10637 10640 10646 10647 10646 10650 10655 10656 10656 10657 10658 10660 10661 10662
10487 10487 10486 10486 10486 10485 10485 10486 10486 10486 10487 10487 10488 10488 10489 10490 10490 10492 10493 10495 10497 10500 10502 10504 10506 10508 10512 10516 10520 10523 10524 10525 10527 10531 10534 10536 10539 10542 10544 10547 10551 10554 10558 10561 10563 10565 10568 10572 10574 10577 10578 10580 10583 10585 10586 10589 10593 10596 10600 10603 10604 10606 10611 10615 10618 10621 10620 10621 10624 10628 10630 10630 10633 10638 10639 10640 10645 10649 10650 10650 10651 10652 10654 10655 10656
10484 10484 10483 10483 10482 10482 10482 10481 10482 10482 10482 10482 10482 10482 10482 10483 10483 10484 10485 10486 10488 10490 10492 10493 10494 10496 10500 10503 10506 10510 10513 10514 10515 10518 10521 10524 10527 10529 10532 10535 10539 10542 10546 10549 10551 10554 10557 10560 10562 10565 10567 10569 10571 10575 10576 10579 10584 10588 10593 10596 10595 10597 10603 10607 10609 10610 10612 10613 10615 10618 10623 10624 10624 10629 10633 10633 10637 10642 10642 10642 10644 10646 10648 10650 10650
10480 10480 10480 10479 10478 10478 10477 10477 10477 10477 10477 10476 10476 10476 10476 10476 10477 10477 10478 10479 10480 10481 10483 10484 10485 10486 10488 10491 10494 10498 10501 10503 10505 10506 10509 10512 10515 10517 10520 10523 10526 10530 10534 10537 10539 10542 10544 10547 10550 10553 10556 10558 10560 10563 10566 10569 10573 10578 10583 10585 10584 10587 10593 10597 10598 10600 10603 10605 10604 10606 10615 10617 10616 10621 10625 10626 10629 10632 10632 10634 10637 10639 10642 10643 10645
10477 10476 10476 10475 10475 10474 10473 10473 10472 10472 10471 10471 10471 10471 10471 10470 10471 10471 10471 10472 10473 10473 10474 10476 10477 10477 10479 10481 10484 10487 10490 10492 10495 10496 10498 10501 10504 10506 10508 10511 10515 10518 10522 10525 10528 10530 10532 10535 10538 10541 10544 10547 10550 10552 10554 10557 10562 10567 10571 10573 10573 10577 10583 10587 10590 10593 10597 10597 10593 10596 10607 10610 10608 10612 10616 10618 10622 10623 10623 10626 10630 10632 10635 10636 10638